User: anonymous   Login
Location: Albany
(35.0000°S, 118.0000°E)
Time: 16:14:26
(UTC-05:00)
Language:

Centaur D-1AR AC-48 - Orbit

View from above orbital plane
View from above orbital plane
View from above satellite
View from above satellite

Ground track
Ground track

The orbit data is extracted from the following two-line orbital elements,

1 10779U 78035B   17016.52295933  .00000025  00000-0  96663-3 0  9990
2 10779  21.2447 121.3738 7185659 280.8522  21.2242  2.22655435315308
Epoch (UTC): 16 January 2017 12:33:03
Eccentricity: 0.7185659
inclination: 21.2447°
perigee height: 594 km
apogee height: 36195 km
right ascension of ascending node: 121.3738°
argument of perigee: 280.8522°
revolutions per day: 2.22655435
mean anomaly at epoch: 21.2242°
orbit number at epoch: 31530

The dashed part of the orbit path shows where the satellite is in the earth's shadow,  

DLR